Probability
0 0 0 0 0 0 0 0 0 0 0 0 0 0 0 0 0 0 0 0 0 0 0 0 0 0 0 0 3 3 3 3 0 0 0 0 0 0 0 0 0 0 0 0
0 0 0 0 0 0 0 0 0 0 0 0 0 0 0 0 0 0 0 0 0 0 0 0 0 0 0 0 0 3 3 3 0 0 0 0 0 0 0 0 0 0 0 0
0 0 0 0 0 0 0 0 0 0 0 0 0 0 0 0 0 0 0 0 0 0 0 0 0 0 0 0 0 0 0 0 0 0 0 0 0 0 0 0 0 0 0 0
0 0 0 0 0 0 0 0 0 0 0 0 0 0 0 0 0 0 0 0 0 0 0 0 0 0 0 0 0 0 0 0 0 0 0 0 0 0 0 0 0 0 0 0
0 0 0 0 0 0 0 0 0 0 0 0 0 0 0 0 0 0 0 0 0 0 0 0 0 0 0 0 0 0 0 0 0 0 0 0 0 0 0 0 0 0 0 0
0 0 0 0 0 0 0 0 0 0 0 0 0 0 0 0 0 0 0 0 0 0 0 0 0 0 0 0 0 0 0 0 0 0 0 0 0 0 0 0 0 0 0 0
0 0 0 0 0 0 0 0 0 0 0 0 0 0 0 0 0 0 0 0 0 0 0 0 0 0 0 0 0 0 0 0 0 0 0 0 0 0 0 0 0 0 0 0
0 0 0 0 0 0 0 0 0 0 0 0 0 0 0 0 0 0 0 0 0 0 0 0 0 0 0 0 0 0 0 0 0 0 0 0 0 0 0 0 0 0 0 0
0 0 0 0 0 0 0 0 0 0 0 0 0 0 0 0 0 0 0 0 0 0 0 0 0 0 0 0 0 0 0 0 0 0 0 0 0 0 0 0 0 0 0 0
0 0 0 0 0 0 0 0 0 0 0 0 0 0 0 0 0 0 0 0 0 0 0 0 0 0 0 0 0 0 0 0 0 0 0 0 0 0 0 0 0 0 0 0
0 0 0 0 0 0 0 0 0 0 0 0 0 0 0 0 0 0 0 0 0 0 0 0 0 0 0 0 0 0 0 0 0 0 0 0 0 0 0 0 0 0 0 0
0 0 0 0 0 0 0 0 0 0 0 0 0 0 0 0 0 0 0 0 0 0 0 0 0 0 0 0 0 0 0 0 0 0 0 0 0 0 0 0 0 0 0 0
0 0 0 0 0 0 0 0 0 0 0 0 0 0 0 0 0 0 0 0 0 0 0 0 0 0 0 0 0 0 0 0 0 0 0 0 0 0 0 0 0 0 0 0
0 0 0 0 0 0 0 0 0 0 0 0 0 0 0 0 0 0 0 0 0 0 0 0 0 0 0 0 0 0 0 0 0 0 0 0 0 0 0 0 0 0 0 0
0 0 0 0 0 0 0 0 0 0 0 0 0 0 0 0 0 0 0 0 0 0 0 0 0 0 0 0 0 0 0 0 0 0 0 0 0 0 0 0 0 0 0 0
0 0 0 0 0 0 0 0 0 0 0 0 0 0 0 0 0 0 0 0 0 0 0 0 0 0 0 0 0 0 0 0 0 0 0 0 0 0 0 0 0 0 0 0
0 0 0 0 0 0 0 0 0 0 0 0 0 0 0 0 0 0 0 0 0 0 0 0 0 0 0 0 0 0 0 0 0 0 0 0 0 0 0 0 0 0 0 0
0 0 0 0 0 0 0 0 0 0 0 0 0 0 0 0 0 0 0 0 0 0 0 0 0 0 0 0 0 0 0 0 0 0 0 0 0 0 0 0 0 0 0 0
0 0 0 0 0 0 0 0 0 0 0 0 0 0 0 0 0 0 0 0 0 0 0 0 0 0 0 0 0 0 0 0 0 0 0 0 0 0 0 0 0 0 0 0
0 0 0 0 0 0 0 0 0 0 0 0 0 0 0 0 0 0 0 0 0 0 0 0 0 0 0 0 0 0 0 0 0 0 0 0 0 0 0 0 0 0 0 0
0 0 0 0 0 0 0 0 0 0 0 0 0 0 0 0 0 0 0 0 0 0 0 0 0 0 0 0 0 0 0 0 0 0 0 0 0 0 0 0 0 0 0 0
0 0 0 0 0 0 0 0 0 0 0 0 0 0 0 0 0 0 0 0 0 0 0 0 0 0 0 0 0 0 0 0 0 0 0 0 0 0 0 0 0 0 0 0
0 0 0 0 0 0 0 0 0 0 0 0 0 0 0 0 0 0 0 0 0 0 0 0 0 0 0 0 0 0 0 0 0 0 0 0 0 0 0 0 0 0 0 0
0 0 0 0 0 0 0 0 0 0 0 0 0 0 0 0 0 0 0 0 0 0 0 0 0 0 0 0 0 0 0 0 0 0 0 0 0 0 0 0 0 0 0 0
0 0 0 0 0 0 0 0 0 0 0 0 0 0 0 0 0 0 0 0 0 0 0 0 0 0 0 0 0 0 0 0 0 0 0 0 0 0 0 0 0 0 0 0
0 0 0 0 0 0 0 0 0 0 0 0 0 0 0 0 0 0 0 0 0 0 0 0 0 0 0 0 0 0 0 0 0 0 0 0 0 0 0 0 0 0 0 0
Height
5705 5705 5704 5705 5704 5703 5702 5702 5702 5703 5702 5701 5701 5703 5704 5703 5704 5706 5706 5707 5708 5709 5710 5710 5711 5712 5713 5714 5714 5715 5716 5717 5717 5718 5719 5720 5721 5722 5722 5723 5724 5724 5726 5727
5696 5696 5696 5695 5693 5692 5692 5691 5691 5691 5691 5689 5690 5691 5692 5692 5694 5695 5695 5696 5697 5698 5699 5699 5700 5701 5702 5702 5703 5704 5705 5706 5706 5707 5708 5709 5710 5710 5711 5712 5713 5714 5714 5715
5686 5688 5686 5684 5683 5682 5681 5681 5681 5680 5679 5678 5677 5678 5680 5681 5682 5683 5684 5685 5686 5687 5687 5688 5689 5689 5690 5691 5692 5693 5694 5694 5695 5696 5696 5697 5698 5699 5700 5700 5701 5701 5702 5702
5676 5676 5675 5673 5672 5671 5671 5671 5670 5668 5667 5666 5666 5664 5669 5670 5671 5672 5673 5673 5674 5675 5675 5676 5677 5677 5678 5679 5680 5681 5682 5682 5683 5683 5684 5685 5686 5687 5687 5688 5688 5688 5689 5690
5667 5666 5664 5663 5663 5661 5660 5659 5658 5657 5655 5654 5654 5652 5657 5658 5659 5661 5661 5661 5662 5663 5663 5664 5664 5665 5666 5666 5667 5668 5669 5669 5670 5671 5672 5672 5673 5674 5674 5674 5675 5675 5676 5676
5657 5655 5653 5653 5652 5650 5648 5648 5646 5644 5642 5641 5644 5641 5643 5646 5648 5648 5648 5649 5649 5649 5650 5651 5651 5652 5653 5653 5654 5655 5655 5656 5657 5658 5658 5659 5660 5660 5660 5661 5661 5661 5661 5662
5646 5645 5643 5642 5640 5639 5638 5637 5634 5632 5630 5630 5633 5629 5631 5635 5636 5636 5636 5636 5637 5637 5637 5638 5638 5639 5640 5640 5641 5641 5642 5642 5643 5643 5644 5644 5645 5645 5646 5646 5646 5646 5647 5647
5635 5635 5633 5631 5629 5628 5627 5626 5624 5621 5619 5620 5619 5618 5622 5623 5623 5624 5624 5624 5624 5624 5625 5625 5625 5626 5626 5627 5627 5627 5628 5628 5629 5629 5629 5629 5630 5630 5630 5631 5631 5631 5631 5632
5624 5624 5623 5621 5619 5618 5616 5614 5614 5611 5608 5607 5607 5608 5611 5612 5611 5611 5611 5611 5612 5612 5612 5612 5612 5612 5612 5612 5612 5613 5613 5613 5613 5613 5614 5614 5614 5614 5614 5614 5615 5615 5615 5615
5613 5612 5613 5611 5609 5607 5606 5605 5603 5600 5597 5595 5596 5597 5600 5600 5600 5600 5599 5599 5599 5599 5599 5599 5599 5599 5599 5599 5599 5599 5599 5599 5598 5598 5598 5598 5598 5598 5597 5597 5598 5598 5598 5598
5604 5602 5602 5601 5599 5598 5597 5595 5593 5590 5588 5586 5585 5589 5590 5590 5589 5588 5588 5587 5587 5587 5587 5587 5587 5586 5586 5585 5585 5585 5585 5584 5584 5584 5583 5583 5582 5582 5581 5581 5582 5582 5582 5582
5594 5592 5591 5590 5589 5587 5586 5585 5583 5582 5579 5576 5575 5580 5579 5579 5578 5577 5576 5575 5575 5574 5574 5574 5574 5573 5573 5572 5572 5571 5571 5570 5570 5569 5568 5567 5566 5565 5565 5565 5565 5565 5565 5564
5585 5583 5581 5580 5581 5578 5575 5574 5573 5571 5568 5566 5565 5569 5568 5568 5566 5565 5564 5563 5563 5562 5562 5561 5561 5560 5559 5559 5558 5558 5557 5556 5555 5554 5553 5552 5551 5550 5549 5549 5548 5548 5547 5547
5575 5573 5572 5571 5569 5567 5565 5564 5562 5560 5557 5556 5556 5557 5558 5556 5555 5554 5553 5551 5550 5550 5549 5548 5548 5547 5546 5545 5544 5544 5543 5541 5540 5539 5538 5537 5536 5534 5533 5533 5532 5531 5530 5530
5565 5563 5562 5560 5558 5556 5555 5553 5552 5550 5548 5546 5546 5546 5546 5545 5543 5542 5541 5539 5538 5538 5537 5536 5535 5534 5533 5533 5531 5530 5529 5528 5526 5525 5523 5522 5521 5519 5518 5517 5516 5515 5515 5514
5556 5554 5552 5550 5549 5546 5544 5543 5541 5540 5538 5536 5535 5535 5536 5533 5531 5530 5529 5527 5526 5525 5524 5523 5522 5521 5521 5520 5519 5517 5516 5515 5513 5511 5510 5508 5507 5505 5504 5502 5501 5500 5499 5498
5547 5545 5542 5540 5539 5535 5534 5535 5532 5530 5529 5526 5524 5525 5523 5521 5520 5519 5517 5516 5514 5513 5512 5510 5509 5509 5508 5507 5506 5504 5503 5501 5500 5498 5496 5495 5493 5491 5489 5488 5487 5486 5485 5484
5538 5536 5533 5531 5530 5527 5530 5525 5523 5520 5519 5517 5515 5514 5512 5510 5509 5507 5506 5504 5503 5501 5500 5498 5497 5496 5495 5494 5492 5491 5489 5488 5486 5485 5483 5481 5479 5477 5475 5474 5473 5471 5470 5469
5531 5528 5525 5522 5519 5518 5519 5516 5513 5510 5510 5507 5505 5503 5501 5499 5498 5497 5494 5492 5491 5489 5487 5486 5485 5483 5482 5481 5479 5478 5476 5475 5473 5471 5469 5467 5465 5463 5461 5460 5458 5457 5456 5454
5523 5520 5518 5514 5511 5509 5511 5508 5503 5502 5500 5498 5495 5493 5491 5489 5488 5487 5484 5481 5479 5477 5476 5474 5472 5471 5469 5468 5466 5465 5463 5461 5459 5457 5455 5453 5451 5449 5448 5446 5445 5443 5442 5440
5516 5513 5510 5507 5503 5501 5502 5498 5495 5493 5492 5488 5485 5483 5481 5479 5477 5475 5473 5470 5468 5466 5464 5462 5460 5458 5457 5455 5453 5452 5449 5448 5445 5443 5442 5440 5438 5436 5435 5433 5431 5429 5428 5426
5508 5505 5502 5499 5495 5496 5492 5489 5487 5484 5481 5479 5476 5473 5471 5469 5466 5464 5462 5459 5457 5455 5452 5450 5448 5446 5444 5443 5441 5439 5437 5435 5433 5431 5429 5427 5425 5423 5421 5419 5418 5416 5414 5411
5500 5498 5494 5492 5491 5487 5483 5480 5478 5475 5473 5470 5467 5464 5462 5459 5457 5454 5452 5449 5446 5444 5441 5439 5437 5435 5433 5431 5429 5427 5425 5423 5421 5419 5416 5414 5412 5410 5408 5407 5405 5403 5400 5398
5493 5489 5486 5483 5482 5479 5475 5472 5469 5467 5464 5461 5458 5455 5453 5450 5447 5444 5442 5439 5436 5433 5430 5428 5425 5423 5421 5419 5416 5414 5412 5411 5409 5406 5404 5402 5400 5398 5396 5394 5392 5390 5387 5385
5484 5481 5478 5475 5474 5470 5467 5464 5461 5458 5455 5452 5449 5446 5443 5440 5438 5435 5432 5429 5426 5423 5420 5417 5414 5412 5409 5407 5405 5402 5400 5398 5396 5394 5392 5389 5387 5385 5383 5381 5379 5377 5375 5372
5477 5473 5470 5468 5466 5463 5460 5456 5453 5449 5446 5443 5440 5437 5434 5431 5428 5425 5422 5419 5416 5412 5409 5406 5404 5401 5398 5396 5393 5391 5388 5386 5384 5382 5379 5377 5375 5373 5371 5369 5366 5364 5362 5359
Wind_Speed
34 34 34 35 36 37 37 37 37 37 38 40 41 41 40 41 40 40 40 40 40 40 41 41 41 41 41 40 40 41 41 41 41 42 42 42 42 43 44 44 43 44 44 45
35 35 35 36 36 37 38 38 38 38 39 41 42 42 42 42 41 40 41 41 41 41 41 42 42 42 42 42 42 42 42 42 43 43 43 43 44 44 45 45 46 46 46 46
36 35 36 36 37 37 38 39 38 39 40 41 43 44 42 42 42 41 41 41 42 42 43 43 44 44 43 43 43 43 43 44 44 44 45 45 45 46 46 47 47 48 48 48
35 35 36 36 37 37 38 38 38 39 41 42 43 45 43 42 42 42 42 42 43 43 43 44 44 45 45 45 45 45 45 45 46 46 47 47 47 47 48 49 50 50 50 51
34 35 36 37 37 38 38 38 39 40 42 43 43 46 43 42 42 42 42 42 43 43 43 44 44 45 46 46 46 46 46 47 47 47 48 48 49 50 50 51 52 52 52 52
34 35 36 37 37 37 38 39 40 41 42 44 42 44 44 41 41 41 41 41 42 42 43 43 44 45 45 46 47 47 47 48 49 49 50 50 51 51 52 53 53 54 54 54
35 35 35 36 37 36 37 38 40 41 42 43 42 43 43 41 40 40 41 41 41 42 42 43 43 44 45 46 48 48 49 49 50 50 51 52 52 53 54 54 55 55 55 55
35 35 35 35 36 36 36 36 38 40 42 42 42 43 41 40 40 40 41 41 41 42 42 43 43 44 45 47 48 49 50 50 51 52 52 53 54 54 55 56 56 56 56 57
35 35 35 35 34 34 35 35 36 38 40 41 42 42 40 38 38 38 39 40 40 41 42 42 42 44 45 46 47 48 49 50 51 52 53 54 55 55 56 56 57 57 57 58
34 35 34 33 34 34 34 34 34 36 38 41 42 40 39 37 37 38 38 39 40 40 41 42 42 43 44 44 45 47 48 49 50 51 52 54 55 55 56 56 57 57 58 58
33 34 34 33 34 34 34 34 35 36 38 40 42 41 38 37 37 38 40 41 41 41 42 42 43 43 44 44 45 46 47 49 50 51 52 53 55 55 55 56 56 57 57 58
33 33 33 33 33 34 35 35 35 35 37 38 40 40 38 38 38 39 39 40 41 42 43 43 44 44 45 45 46 47 48 49 50 51 51 52 53 54 54 55 55 56 57 57
32 33 33 33 33 33 33 33 34 35 37 38 39 38 37 38 38 39 39 39 40 41 42 43 44 45 45 46 47 47 48 49 50 50 51 51 52 53 54 54 55 56 56 57
32 33 33 33 33 33 33 34 34 35 37 37 37 37 36 36 37 38 38 40 40 41 41 41 42 43 43 44 45 46 47 47 48 49 50 50 51 52 53 53 53 54 55 56
33 33 33 33 33 34 34 35 35 36 37 38 37 37 37 37 38 38 39 40 41 41 42 42 43 43 43 43 44 44 45 45 46 46 47 48 49 49 50 51 51 53 54 55
32 33 32 32 32 33 34 34 35 35 36 37 37 37 37 38 39 40 40 41 41 42 42 42 43 42 42 43 44 44 45 45 45 45 45 46 47 47 48 48 48 49 50 51
31 31 31 32 32 32 33 32 33 33 34 35 36 36 36 38 38 39 39 41 41 41 41 41 41 42 42 43 44 44 44 44 44 44 44 45 46 46 47 47 47 48 48 49
29 29 30 30 30 31 30 30 31 32 32 33 34 35 36 37 37 38 39 40 40 41 41 42 42 42 42 43 43 44 44 44 44 44 44 45 45 45 46 46 47 47 47 47
27 28 29 29 30 29 29 30 30 31 32 33 34 34 35 35 36 37 38 38 38 40 41 41 42 42 43 43 44 44 43 44 44 44 44 44 44 44 44 44 45 45 46 46
26 27 28 29 30 30 30 30 30 31 31 31 32 33 33 34 35 35 37 37 38 38 40 41 41 41 42 42 43 43 43 43 43 43 42 42 43 43 43 43 43 44 45 46
26 27 28 29 30 31 31 30 30 30 31 31 32 32 33 33 34 34 35 35 36 37 39 39 40 40 40 40 40 40 41 41 41 41 41 41 42 42 43 43 43 44 45 46
27 28 29 29 30 30 29 29 30 30 30 31 31 32 32 32 32 33 33 34 35 36 38 38 38 38 38 38 38 38 39 39 39 39 40 40 41 42 42 42 43 43 44 45
27 27 28 29 29 29 29 29 29 29 29 30 30 31 31 32 32 32 33 34 35 36 37 37 37 37 37 38 38 38 38 38 38 38 39 39 40 41 41 41 42 42 42 42
27 27 28 28 27 27 28 28 29 29 29 29 30 30 30 31 31 32 33 33 33 34 34 35 36 36 37 37 38 38 37 38 38 39 39 39 39 40 40 40 40 41 41 41
27 27 27 26 25 26 27 28 28 29 30 30 30 31 31 32 32 32 32 32 32 33 34 34 34 35 35 36 36 37 37 38 38 38 39 39 39 39 39 39 39 39 39 40
25 25 26 25 26 27 28 28 29 30 30 30 31 31 31 31 31 32 32 32 32 33 33 33 33 33 34 34 35 36 36 36 37 37 38 38 38 39 39 39 39 40 40 40
Wind_Direction
270 269 269 270 269 270 270 270 269 268 267 265 264 264 262 261 260 259 259 259 259 260 260 260 260 260 260 259 259 259 259 259 259 259 259 259 259 259 260 260 260 261 261 261
270 269 270 270 269 269 269 269 269 269 268 267 266 264 263 262 261 261 261 261 260 260 260 261 261 261 260 260 259 259 259 260 260 259 259 259 259 259 260 261 261 261 262 261
272 272 271 270 270 270 270 270 270 271 270 268 267 265 264 263 262 262 262 262 261 261 261 261 261 261 261 260 260 260 260 260 260 260 259 259 259 260 260 261 261 262 262 263
273 271 271 271 270 271 271 271 271 271 270 269 268 266 263 264 263 263 263 262 262 262 262 262 262 262 261 261 261 261 261 260 260 260 260 260 260 261 261 261 262 262 262 263
275 274 273 273 272 272 272 272 272 272 271 271 269 268 265 264 264 264 263 263 263 262 262 262 262 262 261 260 260 261 261 261 260 260 261 261 261 262 262 262 263 263 263 263
276 275 275 275 274 274 273 273 273 272 271 270 270 270 267 265 264 263 263 264 264 263 262 262 262 262 261 261 261 261 261 261 261 261 262 262 262 262 262 263 263 264 264 265
276 276 276 276 275 274 274 274 273 272 271 272 271 269 269 268 266 265 265 265 265 264 264 264 263 263 262 262 262 262 262 262 262 263 263 262 262 263 263 263 263 263 264 265
280 278 277 277 276 277 276 275 274 274 275 273 271 270 272 272 271 268 266 266 267 266 265 265 266 265 264 264 264 264 264 264 264 264 264 264 264 264 264 264 264 264 265 265
282 281 279 278 277 278 276 275 275 275 275 274 272 272 272 271 271 270 268 267 267 267 266 266 266 266 266 266 265 265 265 265 265 265 265 264 265 265 265 264 264 265 265 266
283 282 280 280 278 278 278 277 274 273 274 274 273 273 274 272 271 271 270 267 267 267 267 267 267 267 267 266 266 266 266 266 266 266 266 266 266 265 265 265 265 265 265 266
284 282 281 279 278 278 278 276 274 274 274 274 274 274 275 274 273 272 271 270 270 268 268 268 268 269 268 267 267 267 267 267 268 268 268 267 267 266 266 266 266 265 265 266
283 282 281 281 280 278 277 277 276 275 275 274 273 273 274 273 272 272 273 272 271 270 270 269 270 271 270 268 268 268 268 269 269 269 269 269 268 268 268 267 266 266 266 267
283 282 282 281 280 279 278 278 276 275 274 274 274 275 275 274 273 272 271 271 271 271 271 271 271 271 270 269 269 269 269 270 270 270 269 269 269 269 268 268 267 267 267 267
282 282 281 282 281 280 278 277 276 275 275 276 276 277 275 275 274 272 271 271 272 272 272 272 271 271 270 269 270 270 271 271 270 270 270 270 270 270 269 269 269 269 267 267
283 282 282 281 280 278 278 277 275 275 276 276 277 276 275 274 273 271 271 271 271 272 272 272 271 271 270 270 270 271 271 271 271 271 271 271 271 271 271 271 270 269 269 268
285 284 284 282 281 280 278 277 277 276 275 276 276 276 277 275 274 273 272 272 272 272 273 272 271 270 270 270 271 272 272 273 273 273 273 272 273 273 272 271 270 270 269 269
287 286 285 285 284 281 280 282 279 278 278 278 278 278 277 276 276 275 273 273 273 272 272 272 271 270 270 271 272 273 274 274 274 274 274 274 273 273 272 271 270 270 269 269
291 289 289 289 287 285 288 285 283 280 279 279 280 280 280 279 278 277 276 275 275 274 273 273 273 272 272 273 273 274 275 275 274 274 274 274 274 273 272 271 270 270 270 270
294 293 292 292 290 290 291 291 288 285 283 283 283 283 282 281 280 279 278 278 277 276 275 275 274 273 273 273 274 275 274 274 274 274 274 273 273 273 272 271 271 270 271 271
294 292 291 292 292 293 295 293 292 289 287 287 287 286 284 283 282 281 280 280 280 279 278 277 276 275 275 275 275 275 275 274 275 275 274 273 273 273 272 272 272 272 272 273
293 292 292 293 294 294 295 295 294 291 291 290 288 288 287 286 285 283 282 281 281 280 279 279 278 277 277 276 276 276 276 276 276 275 275 274 274 273 273 273 273 274 274 274
296 295 295 294 294 296 297 296 294 293 292 291 290 289 289 288 288 287 286 284 283 283 282 282 281 279 278 277 277 277 277 276 277 277 276 275 275 274 274 274 275 276 276 276
296 296 295 295 295 297 296 296 296 295 294 294 293 292 291 291 290 288 288 287 286 285 284 284 282 280 279 279 278 278 277 277 277 278 277 276 275 275 275 276 276 277 278 277
295 295 295 295 297 296 296 296 297 296 295 295 293 293 293 293 293 292 291 290 289 287 287 286 283 282 281 280 279 278 278 278 278 278 278 277 276 276 276 276 277 278 279 278
296 295 295 295 296 296 297 298 298 297 296 296 295 293 293 293 294 293 293 292 291 290 290 289 287 284 283 281 280 279 279 280 279 279 278 278 278 277 277 277 278 278 279 279
295 295 295 296 297 297 298 297 297 296 296 296 295 295 294 294 295 295 295 294 293 293 293 291 289 288 287 285 282 280 280 280 281 281 279 279 279 278 279 279 279 279 279 279